Home   Weather   Corfu   Past weeks

Flag for Greece Past Weather in Corfu, Greece — Yesterday and Last 2 Weeks

Now
73 °F

Broken clouds.


Feels Like: 77 °F
Forecast: 54 / 72 °F
Wind: 2 mph from Southwest

Location: Kerkyra Airport

Current Time: Apr 29, 2017 at 4:36:48 pm

Latest Report: Apr 29, 2017 at 3:50 pm


Visibility: N/A

Pressure: 29.86 "Hg

Humidity: 41%

Dew Point: 48 °F

Location of CorfuLocation

Past Weather in Corfu — Graph

°F

Corfu Temperature Yesterday

Maximum temperature yesterday: 77 °F (at 3:50 pm)
Minimum temperature yesterday: 48 °F (at 5:20 am)
Average temperature yesterday: 62 °F

High & Low Weather Summary for the Past Weeks

 TemperatureHumidityPressure
High77 °F (Apr 27, 5:50 pm)100% (Apr 24, 3:50 am)30.18 "Hg (Apr 24, 3:50 am)
Low43 °F (Apr 21, 6:50 am)27% (Apr 21, 4:20 pm)29.80 "Hg (Apr 19, 9:20 am)
Average58 °F67%30.05 "Hg
* Reported Apr 18 10:50 am — Apr 29 3:20 pm, Corfu, Weather by CustomWeather, © 2017

Note: Actual official high and low records may vary slightly from our data, if they occured in-between our weather recording intervals... More about our weather records

Advertising

Corfu Weather History for the Previous 24 Hours

Scroll right to see more
 ConditionsComfort  
Time TempWeatherWind HumidityBarometerVisibility
3:20 pm
Sat, Apr 29
73 °FBroken clouds.3 mph50%29.86 "HgN/A
2:50 pm73 °FBroken clouds.2 mph50%29.86 "HgN/A
2:20 pm72 °FBroken clouds.No wind50%29.86 "HgN/A
1:50 pm72 °FBroken clouds.5 mph50%29.86 "HgN/A
1:20 pm70 °FBroken clouds.5 mph50%29.86 "HgN/A
12:50 pm70 °FBroken clouds.5 mph50%29.86 "HgN/A
12:20 pm68 °FBroken clouds.No wind53%29.89 "HgN/A
11:50 am68 °FBroken clouds.No wind53%29.89 "HgN/A
11:20 am66 °FBroken clouds.7 mph52%29.89 "HgN/A
10:20 am66 °FBroken clouds.3 mph56%29.89 "HgN/A
9:50 am66 °FMore clouds than sun.5 mph56%29.89 "HgN/A
9:20 am63 °FMore clouds than sun.7 mph77%29.89 "HgN/A
8:50 am63 °FMore clouds than sun.5 mph77%29.89 "HgN/A
8:20 am61 °FBroken clouds.5 mph83%29.89 "HgN/A
7:50 am61 °FBroken clouds.9 mph83%29.89 "HgN/A
7:20 am61 °FBroken clouds.7 mph83%29.89 "HgN/A
6:50 am61 °FPassing clouds.2 mph83%29.89 "HgN/A
6:20 am57 °FPassing clouds.2 mph82%29.92 "HgN/A
5:50 am57 °FPassing clouds.2 mph82%29.92 "HgN/A
5:20 am57 °FPassing clouds.No wind72%29.95 "HgN/A
4:50 am57 °FPassing clouds.No wind72%29.95 "HgN/A
4:20 am57 °FPassing clouds.No wind72%29.95 "HgN/A
3:50 am57 °FPassing clouds.No wind72%29.95 "HgN/A
3:20 am57 °FClear.No wind82%29.95 "Hg10 mi
2:50 am57 °FClear.3 mph82%29.95 "Hg10 mi
2:20 am59 °FClear.No wind72%29.95 "Hg10 mi
1:50 am59 °FClear.No wind72%29.95 "Hg10 mi
1:20 am59 °FClear.No wind68%29.98 "Hg10 mi
12:50 am59 °FClear.No wind68%29.98 "Hg10 mi
12:20 am59 °FClear.No wind77%29.98 "Hg10 mi
11:50 pm
Fri, Apr 28
59 °FClear.No wind77%29.98 "Hg10 mi
11:20 pm61 °FClear.No wind72%29.98 "Hg10 mi
10:50 pm61 °FClear.No wind72%29.98 "Hg10 mi
10:20 pm63 °FPassing clouds.No wind77%29.98 "HgN/A
9:50 pm63 °FPassing clouds.No wind77%29.98 "HgN/A
9:20 pm63 °FPassing clouds.No wind77%29.95 "HgN/A
8:50 pm64 °FPassing clouds.No wind73%29.95 "HgN/A
8:20 pm66 °FPassing clouds.5 mph64%29.95 "HgN/A
7:50 pm68 °FPassing clouds.7 mph60%29.95 "HgN/A
7:20 pm70 °FPassing clouds.6 mph60%29.95 "HgN/A
6:50 pm72 °FSunny.7 mph57%29.95 "Hg10 mi
6:20 pm75 °FSunny.7 mph41%29.95 "Hg10 mi
5:50 pm75 °FSunny.7 mph41%29.95 "Hg10 mi
5:20 pm75 °FSunny.6 mph41%29.98 "Hg10 mi
4:50 pm75 °FSunny.7 mph41%29.98 "Hg10 mi
Weather by CustomWeather, © 2017

See weather overviewHow to use our weather pages